Location: Bohy
(49.9380°N, 13.5753°E)
Time: 00:33:54
(UTC+00:00)

SWARM A - Pass Details

Date: 19 May 2025
Orbit: 436 x 441 km, 87.3° (Epoch: 23 June)

Event Time Altitude Azimuth Distance (km) Brightness Sun altitude
Exits shadow 20:50:15 23° 183° (S) 994 5.6 -14.2°
Maximum altitude 20:52:15 88° 268° (W) 451 4.2 -14.4°
Drops below altitude 10° 20:55:40 10° 2° (N) 1,576 8.0 -14.7°
Sets 20:57:44 0° 3° (N) 2,452 9.1 -14.9°
